TimeCST,TemperatureF,Dew PointF,Humidity,Sea Level PressureIn,VisibilityMPH,Wind Direction,Wind SpeedMPH,Gust SpeedMPH,PrecipitationIn,Events,Conditions,WindDirDegrees,DateUTC
12:11 AM,15.8,6.8,68,30.19,10.0,SW,6.9,-,N/A,,Overcast,220,2012-11-27 06:11:00
12:31 AM,15.8,6.8,68,30.18,10.0,SW,4.6,-,N/A,,Overcast,230,2012-11-27 06:31:00
12:51 AM,15.8,6.8,68,30.18,7.0,SSW,4.6,-,N/A,Snow,Light Snow,210,2012-11-27 06:51:00
1:11 AM,14.0,8.6,79,30.17,3.0,SSW,4.6,-,N/A,Snow,Light Snow,210,2012-11-27 07:11:00
1:51 AM,14.0,8.6,79,30.16,10.0,SSW,5.8,-,N/A,,Overcast,210,2012-11-27 07:51:00
2:11 AM,14.0,8.6,79,30.16,10.0,SSW,6.9,-,N/A,Snow,Light Snow,210,2012-11-27 08:11:00
2:31 AM,14.0,8.6,79,30.15,10.0,SW,6.9,-,N/A,,Overcast,220,2012-11-27 08:31:00
2:51 AM,15.8,8.6,73,30.14,10.0,SW,5.8,-,N/A,,Overcast,220,2012-11-27 08:51:00
3:12 AM,15.8,8.6,73,30.13,10.0,SSW,5.8,-,N/A,,Overcast,200,2012-11-27 09:12:00
3:31 AM,15.8,10.4,79,30.13,7.0,SW,6.9,-,N/A,Snow,Light Snow,230,2012-11-27 09:31:00
3:51 AM,15.8,10.4,79,30.13,3.0,SW,4.6,-,N/A,Snow,Light Snow,230,2012-11-27 09:51:00
4:11 AM,15.8,10.4,79,30.11,1.8,SW,5.8,-,N/A,Snow,Light Snow,220,2012-11-27 10:11:00
4:31 AM,15.8,10.4,79,30.11,2.0,SSW,5.8,-,N/A,Snow,Light Snow,210,2012-11-27 10:31:00
4:52 AM,15.8,10.4,79,30.10,3.0,SSW,4.6,-,N/A,Snow,Light Snow,210,2012-11-27 10:52:00
5:11 AM,15.8,10.4,79,30.09,4.0,SSW,5.8,-,N/A,Snow,Light Snow,210,2012-11-27 11:11:00
5:31 AM,15.8,10.4,79,30.09,7.0,SW,5.8,-,N/A,Snow,Light Snow,220,2012-11-27 11:31:00
5:52 AM,14.0,10.4,86,30.09,10.0,SW,5.8,-,N/A,,Mostly Cloudy,220,2012-11-27 11:52:00
6:11 AM,14.0,10.4,86,30.08,10.0,SW,4.6,-,N/A,,Scattered Clouds,220,2012-11-27 12:11:00
6:31 AM,14.0,8.6,79,30.08,10.0,SW,5.8,-,N/A,,Scattered Clouds,220,2012-11-27 12:31:00
6:52 AM,14.0,8.6,79,30.07,10.0,WSW,5.8,-,N/A,,Scattered Clouds,240,2012-11-27 12:52:00
7:11 AM,14.0,8.6,79,30.07,10.0,SW,5.8,-,N/A,,Scattered Clouds,230,2012-11-27 13:11:00
7:31 AM,14.0,8.6,79,30.07,10.0,SW,5.8,-,N/A,,Scattered Clouds,230,2012-11-27 13:31:00
7:52 AM,14.0,8.6,79,30.07,10.0,SW,4.6,-,N/A,,Mostly Cloudy,230,2012-11-27 13:52:00
8:11 AM,15.8,10.4,79,30.07,10.0,SW,5.8,-,N/A,,Mostly Cloudy,220,2012-11-27 14:11:00
8:31 AM,15.8,10.4,79,30.07,3.0,SW,5.8,-,N/A,Snow,Light Snow,230,2012-11-27 14:31:00
8:51 AM,15.8,10.4,79,30.07,2.0,SW,6.9,-,N/A,Snow,Light Snow,220,2012-11-27 14:51:00
9:31 AM,15.8,10.4,79,30.06,0.8,SW,6.9,-,N/A,Snow,Light Snow,220,2012-11-27 15:31:00
9:51 AM,17.6,12.2,79,30.06,0.8,SSW,6.9,-,N/A,Snow,Light Snow,210,2012-11-27 15:51:00
10:11 AM,17.6,12.2,79,30.06,1.2,SW,4.6,-,N/A,Snow,Light Snow,220,2012-11-27 16:11:00
10:31 AM,19.4,14.0,80,30.05,1.8,SW,5.8,-,N/A,Snow,Light Snow,220,2012-11-27 16:31:00
10:51 AM,21.2,15.8,80,30.05,4.0,WSW,8.1,-,N/A,Snow,Light Snow,240,2012-11-27 16:51:00
11:12 AM,23.0,15.8,74,30.04,5.0,WSW,6.9,-,N/A,,Haze,250,2012-11-27 17:12:00
11:31 AM,23.0,15.8,74,30.03,4.0,West,6.9,-,N/A,Snow,Light Snow,260,2012-11-27 17:31:00
11:51 AM,23.0,15.8,74,30.03,1.8,WSW,8.1,-,N/A,Snow,Light Snow,250,2012-11-27 17:51:00
12:12 PM,23.0,17.6,80,30.02,2.0,West,6.9,-,N/A,Snow,Light Snow,260,2012-11-27 18:12:00
12:31 PM,23.0,17.6,80,30.02,2.0,WSW,6.9,-,N/A,Snow,Light Snow,250,2012-11-27 18:31:00
12:51 PM,23.0,17.6,80,30.02,2.5,WSW,6.9,-,N/A,Snow,Light Snow,250,2012-11-27 18:51:00
1:12 PM,24.8,17.6,74,30.01,3.0,WSW,4.6,-,N/A,Snow,Light Snow,250,2012-11-27 19:12:00
1:31 PM,24.8,17.6,74,30.01,3.0,SW,4.6,-,N/A,Snow,Light Snow,230,2012-11-27 19:31:00
1:51 PM,24.8,17.6,74,30.01,2.5,SW,6.9,-,N/A,Snow,Light Snow,230,2012-11-27 19:51:00
2:12 PM,24.8,19.4,80,30.01,1.8,WSW,5.8,-,N/A,Snow,Light Snow,240,2012-11-27 20:12:00
2:31 PM,24.8,19.4,80,30.01,2.0,West,4.6,-,N/A,Snow,Light Snow,260,2012-11-27 20:31:00
2:51 PM,26.6,19.4,74,30.01,7.0,West,5.8,-,N/A,,Overcast,280,2012-11-27 20:51:00
3:12 PM,26.6,17.6,69,30.02,10.0,WNW,3.5,-,N/A,,Mostly Cloudy,290,2012-11-27 21:12:00
3:51 PM,24.8,17.6,74,30.03,10.0,West,5.8,-,N/A,,Overcast,270,2012-11-27 21:51:00
4:12 PM,24.8,17.6,74,30.03,10.0,WSW,5.8,-,N/A,,Overcast,250,2012-11-27 22:12:00
4:31 PM,24.8,17.6,74,30.03,10.0,West,4.6,-,N/A,,Overcast,260,2012-11-27 22:31:00
4:51 PM,24.8,17.6,74,30.04,10.0,WSW,4.6,-,N/A,,Overcast,240,2012-11-27 22:51:00
5:11 PM,24.8,17.6,74,30.04,10.0,WSW,5.8,-,N/A,,Overcast,250,2012-11-27 23:11:00
5:31 PM,24.8,17.6,74,30.04,10.0,SW,5.8,-,N/A,,Overcast,230,2012-11-27 23:31:00
5:51 PM,23.0,17.6,80,30.04,10.0,SW,5.8,-,N/A,,Scattered Clouds,230,2012-11-27 23:51:00
6:11 PM,23.0,17.6,80,30.05,10.0,WSW,4.6,-,N/A,,Mostly Cloudy,240,2012-11-28 00:11:00
6:52 PM,23.0,17.6,80,30.05,10.0,West,4.6,-,N/A,Snow,Light Snow,260,2012-11-28 00:52:00
7:11 PM,24.8,17.6,74,30.06,10.0,West,6.9,-,N/A,,Overcast,260,2012-11-28 01:11:00
7:31 PM,24.8,17.6,74,30.06,10.0,West,4.6,-,N/A,,Overcast,260,2012-11-28 01:31:00
7:52 PM,24.8,17.6,74,30.07,10.0,WNW,5.8,-,N/A,Snow,Light Snow,300,2012-11-28 01:52:00
8:11 PM,24.8,17.6,74,30.07,10.0,NW,3.5,-,N/A,,Overcast,310,2012-11-28 02:11:00
8:31 PM,23.0,15.8,74,30.08,10.0,WNW,3.5,-,N/A,,Overcast,300,2012-11-28 02:31:00
8:52 PM,21.2,15.8,80,30.09,10.0,WNW,4.6,-,N/A,,Overcast,290,2012-11-28 02:52:00
9:11 PM,21.2,14.0,74,30.09,10.0,West,4.6,-,N/A,,Overcast,280,2012-11-28 03:11:00
9:31 PM,21.2,14.0,74,30.09,10.0,West,4.6,-,N/A,,Overcast,280,2012-11-28 03:31:00
9:52 PM,19.4,12.2,74,30.10,10.0,West,5.8,-,N/A,,Overcast,280,2012-11-28 03:52:00
10:11 PM,19.4,12.2,74,30.10,10.0,NW,5.8,-,N/A,,Overcast,310,2012-11-28 04:11:00
10:31 PM,19.4,10.4,68,30.11,10.0,WNW,5.8,-,N/A,,Mostly Cloudy,290,2012-11-28 04:31:00
10:51 PM,19.4,10.4,68,30.12,10.0,West,3.5,-,N/A,,Mostly Cloudy,270,2012-11-28 04:51:00
11:11 PM,17.6,10.4,73,30.12,10.0,West,4.6,-,N/A,,Overcast,280,2012-11-28 05:11:00
11:51 PM,17.6,10.4,73,30.13,10.0,West,3.5,-,N/A,,Scattered Clouds,270,2012-11-28 05:51:00